Regional Weather Roundup
Issued by NWS Sioux Falls, SD

Home | Current Version | Previous Version | Graphics & Text | Print | Product List | Glossary On
Versions: 1 2 3 4 5 6 7 8 9 10 11 12 13 14 15 16 17 18 19 20 21 22 23 24 25 26 27 28 29 30 31 32 33 34 35 36 37 38 39 40 41 42 43 44 45 46 47 48 49 50
000
ASUS43 KFSD 231410
RWRFSD

WEATHER ROUNDUP FOR SE SOUTH DAKOTA/SW MINNESOTA/NW IOWA
NATIONAL WEATHER SERVICE SIOUX FALLS SD
900 AM CDT WED JUL 23 2014

NOTE: "FAIR" INDICATES FEW OR NO CLOUDS BELOW 12,000 FEET WITH NO
SIGNIFICANT WEATHER AND OR OBSTRUCTIONS TO VISIBILITY.


SDZ038>040-050-052>070-231500-
SOUTHEAST SOUTH DAKOTA

CITY           SKY/WX    TMP DP  RH WIND       PRES   REMARKS
CHAMBERLAIN    MOSUNNY   68  58  69 SE13G22   30.28S
HURON          SUNNY     68  58  70 SE7       30.29R
MADISON        FAIR      64  59  82 E6        30.31S
MITCHELL       MOSUNNY   68  59  73 SE7       30.30S
SIOUX FALLS    PTSUNNY   69  57  65 E7        30.29F
WINNER         FAIR      70  58  65 SE16G24   30.28R
YANKTON        MOSUNNY   68  57  68 CALM      30.31R
$$

MNZ071-072-080-081-089-090-097-098-231500-
SOUTHWEST MINNESOTA

CITY           SKY/WX    TMP DP  RH WIND       PRES   REMARKS
FAIRMONT       MOSUNNY   66  55  68 N7        30.27S
JACKSON        SUNNY     66  55  68 NE7       30.29S
LUVERNE        MOSUNNY   68  55  64 NE7       30.29S
MARSHALL       SUNNY     66  55  68 N3        30.29S
MONTEVIDEO     SUNNY     72  59  64 E5        30.29S
PIPESTONE      MOSUNNY   66  55  68 E5        30.30S
REDWOOD FALLS  SUNNY     69  57  65 NE5       30.28R
TRACY          SUNNY     67  58  74 N3        30.30S
WINDOM         SUNNY     68  55  64 N8        30.29S
WORTHINGTON    SUNNY     66  57  72 NE8       30.30F
$$

IAZ001>003-012>014-020>022-031-032-NEZ013-014-SDZ071-231500-
NORTHWEST IOWA

CITY           SKY/WX    TMP DP  RH WIND       PRES   REMARKS
CHEROKEE       MOSUNNY   66  59  79 N6        30.27S
DENISON        MOSUNNY   68  59  73 N5        30.24S
ESTHERVILLE    SUNNY     66  57  72 N10       30.28R
LE MARS        SUNNY     66  59  77 N6        30.28F
ORANGE CITY    MOSUNNY   66  57  72 NE6       30.29S
SHELDON        MOSUNNY   68  57  68 NE8       30.27F
SIOUX CITY     SUNNY     72  57  59 NE5       30.26F
SPENCER        MOSUNNY   69  58  67 N10       30.28S
STORM LAKE     MOSUNNY   66  59  77 NE8       30.28S
$$

ABBREVIATIONS USED IN REMARKS
   TC - TEMPERATURE IN CELSIUS
  WCI - WIND CHILL INDEX
   HX - HEAT INDEX
  VSB - VISIBILITY



USA.gov is the U.S. government's official web portal to all federal, state and local government web resources and services.